Flag for Spain Weather past 2 weeks in Arrecife, Canary Islands, Spain

Now
77 °F

Sunny.


Feels Like: 78 °F
Forecast: 72 / 81 °F
Wind: 6 mph from Southeast

Location: Lanzarote / Aeropuerto

Current Time: Oct 23, 2014 at 6:52:59 PM

Latest Report: Oct 23, 2014 at 6:30 PM


Visibility: 10 mi

Pressure: 29.98 "Hg

Humidity: 89%

Dew point: 73 °F

Location of ArrecifeLocation

Historic Weather in Arrecife — Graph

°F

Arrecife temperature yesterday

Maximum temperature yesterday: 86 °F (at 10:00 AM)
Minimum temperature yesterday: 75 °F (at 10:00 PM)
Average temperature yesterday: 80 °F

Past Weeks' High & Low Weather Summary

 TemperatureHumidityPressure
High88 °F (Oct 21, 6:00 PM)89% (Oct 22, 10:00 PM)30.12 "Hg (Oct 22, 10:00 PM)
Low66 °F (Oct 11, 7:00 AM)23% (Oct 22, 7:30 AM)29.77 "Hg (Oct 19, 5:30 PM)
Average75 °F71%30.02 "Hg
* Reported Oct 8 5:00 PM — Oct 23 5:30 PM, Arrecife, Weather by CustomWeather, © 2014

Note: Actual official high and low records may vary slightly from our data, if they occured in-between our weather recording intervals... More about our weather records

Advertising

Arrecife weather history for previous 24 hours

 ConditionsComfort  
Time TempWeatherWind HumidityBarometerVisibility
5:30 PM
Oct 23
79 °FSunny.6 mph84%29.98 "Hg10 mi
5:00 PM79 °FSunny.5 mph84%29.98 "Hg10 mi
4:30 PM79 °FSunny.5 mph84%29.98 "Hg10 mi
4:00 PM79 °FSunny.6 mph84%30.01 "Hg10 mi
3:30 PM79 °FSunny.3 mph84%30.01 "Hg10 mi
3:00 PM79 °FSunny.3 mph84%30.01 "Hg10 mi
2:30 PM79 °FSunny.5 mph84%30.01 "Hg10 mi
2:00 PM79 °FSunny.3 mph84%30.04 "Hg10 mi
1:30 PM81 °FSunny.3 mph74%30.04 "Hg10 mi
1:00 PM81 °FSunny.3 mph70%30.04 "Hg10 mi
12:30 PM81 °FSunny.2 mph66%30.07 "Hg10 mi
12:00 PM79 °FPassing clouds.3 mph74%30.07 "HgN/A
11:30 AM79 °FSunny.3 mph79%30.07 "Hg10 mi
11:00 AM79 °FSunny.7 mph74%30.07 "Hg10 mi
10:30 AM79 °FPassing clouds.No wind65%30.07 "HgN/A
10:00 AM77 °FPassing clouds.No wind74%30.07 "HgN/A
9:30 AM75 °FPassing clouds.1 mph74%30.07 "HgN/A
9:00 AM72 °FPassing clouds.1 mph78%30.07 "HgN/A
8:30 AM70 °FPassing clouds.2 mph78%30.04 "HgN/A
8:00 AM70 °FPassing clouds.2 mph78%30.04 "HgN/A
7:30 AM72 °FClear.1 mph73%30.04 "Hg10 mi
7:00 AM70 °FClear.No wind73%30.04 "Hg10 mi
6:30 AM70 °FClear.No wind73%30.04 "Hg10 mi
6:00 AM73 °FClear.No wind69%30.04 "Hg10 mi
1:00 AM77 °FPassing clouds.7 mph54%30.07 "HgN/A
12:30 AM79 °FPassing clouds.6 mph45%30.09 "HgN/A
12:00 AM77 °FPassing clouds.3 mph51%30.09 "HgN/A
11:30 PM
Oct 22
75 °FClear.No wind83%30.09 "Hg10 mi
11:00 PM75 °FClear.No wind83%30.09 "Hg10 mi
10:30 PM75 °FClear.1 mph83%30.09 "Hg10 mi
10:00 PM75 °FClear.2 mph89%30.09 "Hg10 mi
9:30 PM77 °FClear.3 mph74%30.07 "Hg10 mi
9:00 PM79 °FClear.2 mph79%30.07 "Hg10 mi
8:30 PM81 °FPassing clouds.8 mph58%30.07 "HgN/A
8:00 PM81 °FSunny.8 mph58%30.07 "Hg10 mi
7:30 PM77 °FSunny.2 mph83%30.07 "Hg10 mi
7:00 PM82 °FSunny.1 mph66%30.07 "Hg10 mi
6:30 PM84 °FPassing clouds.9 mph51%30.07 "HgN/A
6:00 PM79 °FSunny.16 mph74%30.04 "Hg10 mi
Weather by CustomWeather, © 2014

See weather overviewHow to use our weather pages